Find Starlink 32635

NORAD ID: 62155 Int'l Des: 2024-224 Owner: SPXS Country: US Constellation: starlink operational
LEOCIRCULAR

Current View

Loading 3D Globe...

About Starlink 32635

Starlink 32635 (NORAD 62155) is a starlink constellation satellite (v2 mini) launched Nov 30, 2024 by SPXS of US. It operates in LEO, CIRCULAR orbit with a mass of 730.00 kg.

Upcoming Passes

Passes for default location (London). Set your location on the main map for personalized predictions.

Altitude History

Loading altitude history...

Two-Line Element Set

1 62155U 24224S 26263.94194186 .00016199 00000-0 59620-3 0 9995
2 62155 42.9996 143.0003 0002133 257.3682 102.6931 15.27617475102092
Epoch: Sep 20, 2026 • Age: 11 hours

Current Status

Altitude 493.8 km
Apogee / Perigee N/A
Velocity 7.62 km/s
Sub-Earth Point -40.44°S, 64.35°W
Launch Date Nov 30, 2024
Age 1.8 years
Type internet

Technical Details

Classification Payload
Mass 730.00 kg
Dry Mass 700.00 kg
Length 0.30 m
Span 29.00 m
Shape ? Box + pan
Manufacturer SPXS
Bus Type Starlink V2M
Phase Status In Orbit
Owner/State SPXS/US

Most Searched